www.pogodaiklimat.ru
ПОГОДА в Белозерске

Архив погоды в Белозерске (Вологодская область, Россия)

Время
(UTC), дата
18 25.06
21 25.06
00 26.06
03 26.06
06 26.06
09 26.06
12 26.06
15 26.06
18 26.06
21 26.06
00 27.06
03 27.06
06 27.06
09 27.06
12 27.06
15 27.06
18 27.06
21 27.06
00 28.06
03 28.06
06 28.06
09 28.06
12 28.06
15 28.06
18 28.06
21 28.06
00 29.06
03 29.06
06 29.06
09 29.06
12 29.06
15 29.06
18 29.06
21 29.06
00 30.06
03 30.06
06 30.06
09 30.06
12 30.06
15 30.06
18 30.06
21 30.06
00 1.07
03 1.07
06 1.07
09 1.07
12 1.07
15 1.07
18 1.07
21 1.07
00 2.07
03 2.07
06 2.07
09 2.07
12 2.07
Ветер
(напр.,м/с)
Видим. Явления Облачность Т
(С)
Тd
(С)
f
(%)
Тe
(С)
Тes
(С)
Комфортность P
(гПа)
Po
(гПа)
Тmin
(С)
Tmax
(С)
R
(мм)
R24
(мм)
S
(см)
С 2 10 км 3/0
[Ac trans]
+23.1 +16.6 67 +28 +28 душно 1018.2 1003.1
штиль 0 10 км ясно +16.0 +15.7 98 +16 +16 1019.4 1003.9
штиль 0 10 км ясно +13.9 +13.5 97 +13 +13 1020.4 1004.8
ЮВ 1 10 км ясно +18.3 +16.8 91 +20 +22 1021.2 1005.8 +13.2
С 1 10 км ясно +25.3 +18.4 66 +30 +40 душно 1020.9 1005.9
С 2 10 км ясно +26.7 +18.6 61 +32 +46 очень
душно
1020.4 1005.4
С 1 10 км 3/3 1000 м
[Cu hum]
+29.4 +15.9 44 +32 +41 душно 1019.0 1004.2
З 1 10 км 3/3 1000 м
[Sc diur, vesp]
+30.0 +17.5 47 +34 +37 очень
душно
1017.5 1002.8 +30.4
З 1 10 км 4/3 1000 м
[Sc diur, vesp Ac trans]
+24.4 +17.4 65 +28 +28 душно 1017.0 1002.0
З 1 10 км 5/0
[Ci fib]
+19.9 +11.1 57 +22 +22 комфорт 1017.9 1002.6
З 1 10 км ясно +17.6 +13.1 75 +19 +19 1017.6 1002.2
СЗ 1 10 км ясно +20.7 +16.5 77 +25 +27 комфорт 1018.1 1002.9 +16.4
СЗ 2 10 км ясно +23.4 +18.1 72 +29 +38 душно 1018.6 1003.5
СЗ 1 10 км 3/3 1000 м
[Cu med, cong]
+26.6 +17.7 58 +31 +42 душно 1018.8 1003.9
С 2 10 км в посл. час ливневой дождь 6/5 1000 м
[Cu med, cong As trans]
+25.9 +20.2 71 +32 +37 очень
душно
1019.2 1004.2
СВ 3 10 км {ливн. дождь} 3/3 1000 м
[Sc diur, vesp]
+23.2 +15.0 60 +27 +29 душно 1020.2 1005.1 +27.7 0.0
СВ 2 10 км {ливн. дождь} 4/3 1000 м
[Sc diur, vesp Ci fib]
+19.5 +8.2 48 +21 +21 комфорт 1021.3 1005.9
СВ 2 10 км 3/3 1000 м
[Sc]
+16.8 +8.5 58 +17 +17 1022.7 1007.2
В 1 10 км 3/0
[Ac trans]
+12.4 +7.9 74 +12 +12 1024.8 1009.0
В 2 10 км 4/0 2000 м
[Ac trans Ci fib]
+12.4 +7.9 74 +12 +13 1026.5 1010.6 +11.5
СВ 2 10 км 1/1 1000 м
[Cu hum]
+14.2 +7.5 64 +14 +22 1027.1 1011.3
С 3 10 км ясно +16.3 +8.5 60 +16 +28 опасность
простуды
1027.0 1011.3
С 2 10 км 1/0
[Ac trans]
+18.6 +8.8 53 +20 +30 1026.1 1010.6
С 3 10 км ясно +19.1 +5.2 40 +20 +23 1025.3 1009.9 +19.2
СВ 1 10 км ясно +16.4 +6.8 53 +17 +17 1025.4 1009.8
СВ 2 10 км ясно +15.0 +7.3 60 +15 +15 1025.8 1010.1
штиль 0 10 км ясно +7.4 +5.9 90 +6 +6 1027.1 1011.0
ЮВ 2 10 км ясно +11.1 +8.3 83 +10 +12 1027.1 1011.2 +6.3
Ю 1 10 км ясно +18.1 +7.2 49 +19 +29 1026.2 1010.7
С 2 10 км ясно +18.6 +8.3 51 +20 +34 опасность
простуды
1025.3 1009.8
С 2 10 км 4/0
[Cs]
+20.4 +8.4 46 +22 +32 комфорт 1024.0 1008.6
СЗ 1 10 км 8/0 2000 м
[Ac trans Ci]
+21.5 +9.1 45 +23 +26 комфорт 1021.9 1006.6 +21.5
штиль 0 10 км 8/0
[Ac trans Ci]
+14.6 +11.2 80 +14 +14 1020.8 1005.2
З 1 10 км 5/0
[Ci fib]
+13.4 +9.3 76 +14 +14 1021.0 1005.3
ЮЗ 1 10 км 8/0
[Cs]
+8.9 +7.8 93 +8 +8 1021.1 1005.1
СЗ 1 10 км 6/0 2000 м
[Ac trans Ci fib]
+13.2 +11.4 89 +13 +15 1020.5 1004.8 +8.6
СЗ 2 10 км 6/0
[Ac trans Cc]
+18.4 +11.0 62 +19 +26 1020.1 1004.7
С 2 10 км 9/3 600 м
[Cb calv Ac trans Cs]
+21.2 +11.8 55 +23 +29 комфорт 1019.8 1004.5
СЗ 2 10 км 6/3 600 м
[Cb calv Ac trans Ci fib]
+23.2 +12.8 52 +26 +32 жарко 1019.1 1004.0
СЗ 1 10 км 3/3 1000 м
[Sc Ac trans]
+23.4 +15.2 60 +28 +30 душно 1018.1 1003.0 +24.0
С 2 10 км 5/5 1000 м
[Sc]
+21.0 +14.9 68 +25 +25 комфорт 1017.9 1002.7
В 1 10 км 3/3 1000 м
[Sc]
+18.4 +13.1 71 +20 +20 1018.9 1003.5
ЮВ 1 10 км 5/0
[Ac trans Ci fib]
+13.7 +7.4 66 +14 +14 1020.8 1005.1
Ю 1 10 км 3/0
[Ci fib]
+14.7 +9.3 70 +15 +17 1022.0 1006.3 +11.1
ЮВ 2 10 км 5/0
[Ci fib]
+19.1 +6.6 44 +20 +28 1023.1 1007.7
С 3 10 км 4/0
[Ci fib]
+20.5 +8.2 45 +22 +33 комфорт 1023.6 1008.2
С 2 10 км 8/0
[Ci]
+21.2 +8.8 45 +22 +32 комфорт 1023.3 1007.9
С 1 10 км 3/0
[Ci fib]
+22.0 +9.2 44 +23 +27 комфорт 1022.6 1007.3 +22.2
штиль 0 10 км 5/0
[Cc]
+16.1 +12.6 80 +16 +16 1022.7 1007.1
Ю 1 10 км 8/0
[Cc]
+11.6 +10.3 92 +11 +11 1022.9 1007.0
Ю 2 10 км 10/0
[Ac trans Cs]
+10.7 +9.9 95 +9 +9 1022.9 1007.1
ЮЗ 1 10 км 8/5 600 м
[Cb calv Ac trans Cs]
+14.1 +10.0 76 +14 +15 1022.6 1006.9 +10.4
З 3 10 км 9/3 1000 м
[Sc Ac trans Cs]
+22.3 +12.2 53 +25 +28 комфорт 1020.8 1005.6
З 2 10 км 3/0
[Ci fib]
+26.3 +15.6 52 +29 +43 жарко 1019.5 1004.5
СЗ 2 10 км 5/3 1000 м
[Cu med, cong Cc]
+28.7 +17.6 51 +33 +40 очень
душно
1017.7 1002.9
Местоположение метеостанции Белозерск (Вологодская область, Россия): широта 60.03 долгота 37.78 высота над уровнем моря 131 м.
В архиве по умолчанию представлена погода в Белозерске за последнюю неделю. Архивные данные за месяц целиком и за предыдущие месяцы, начиная с января 2011 года, Вы можете получить, выбрав интересующий диапазон дат из раскрывающегося списка и нажав кнопку "Найти!".
*Определитесь, кто Вы:
Внимание! Время в таблицах - всемирное. Для получения местного времени необходимо прибавить поправку, которая равна 3 ч.
Смотрите также архив погоды в соседних городах и на ближайших метеорологических станциях:
Партнеры нашего сайта:      
Пояснения к столбцам:
  • Ветер - указаны скорость ветра в м/с - средняя за 10 мин, порывы в срок и между сроками (в фигурных скобках) и направление, откуда дует ветер: С - северный,
  • СВ - северо-восточный, В - восточный, ЮВ - юго-восточный, Ю - южный, ЮЗ - юго-западный, З - западный, СЗ - северо-западный.
  • Видимость - горизонтальная дальность видимости в метрах или километрах. При видимости от 1 до 10 км при отсутствии осадков обычно наблюдается дымка, при ухудшении видимости до 1 км и менее - туман. В сухую погоду видимость может ухудшаться дымом, пылью или мглою.
  • Явления - указаны атмосферные явления, наблюдавшиеся в срок или в последний час перед сроком; фигурными скобками обозначены явления, наблюдавшиеся между сроками (за 1-3 часа до срока); квадратными скобками обозначены град или гололедные отложения с указанием их диаметра в мм.
  • Облачность - указаны через наклонную черту общая и нижняя облачность в баллах и высота нижней границы облаков в метрах; квадратными скобками обозначены формы облаков: Ci - перистые, Cs - перисто-слоистые, Cc - перисто-кучевые, Ac - высококучевые, As - высокослоистые, Sc - слоисто-кучевые, Ns - слоисто-дождевые, Cu - кучевые, Cb - кучево-дождевые. Подробнее классификацию облаков см. в Атласе облаков (PDF).
  • T - Температура воздуха - температура, измеренная на высоте 2 м над землей.
  • Td - Температура точки росы - температура, при понижении до которой содержащийся в воздухе водяной пар достигнет насыщения.
  • f - Относительная влажность воздуха - влажноcть воздуха, измеренная на высоте 2 м над землей.
  • Te - Эффективная температура - температура, которую ощущает одетый по сезону человек в тени. Характеристика душности погоды. При расчете учитывается влияние влажности воздуха и скорости ветра на теплоощущения человека.
  • Tes - Эффективная температура на солнце - температура, которую ощущает человек, с поправкой на солнечный нагрев. Характеристика знойности погоды. Зависит от высоты солнца над горизонтом, облачности и скорости ветра. Ночью, в пасмурную погоду, а также при ветре 12 м/с и более поправка равна нулю.
  • P - Атмосферное давление - приведенное к уровню моря атмосферное давление.
  • Po - Атмосферное давление - измеренное на уровне метеостанции атмосферное давление.
  • Tmin - Минимальная температура - минимум температуры воздуха на высоте 2 м над землей.
  • Tmax - Максимальная температура - максимум температуры воздуха на высоте 2 м над землей.
  • R - Количество осадков - Количество выпавших осадков за период времени, мм. При наведении курсора мыши на число - период времени, за который выпало указанное количество осадков.
  • R24 - Количество осадков - Количество выпавших осадков за 24 часа, мм.
  • S - Снежный покров - Высота снежного покрова, см. При наведении курсора мыши на число - состояние снежного покрова и степень покрытия местности в баллах.